星链-4756 (STARLINK-4756 )

导读

STARLINK-4756是美国太空探索技术公司(SpaceX)星链(Starlink)卫星互联网项目的低轨通信卫星,于2022年9月19日发射升空,属于星链星座组网卫星,旨在为全球,尤其是网络覆盖匮乏的偏远地区,提供高速、稳定的宽带互联网接入服务,运行在近地轨道,是星链构建全球卫星互联网的重要组成部分,助力实现全域互联覆盖。

Basic Information
目录编号:
53826
目录名称:
STARLINK-4756
国际标识:
2022-114J
轨道中心:
EARTH
卫星名称:
星链-4756
卫星全名:
星链-4756 (STARLINK-4756 )
卫星状态:
在轨 (已飞行1446 天)
发射日期:
2022-09-19 UTC
国别 :
美国 (US)
星等 :
--
Orbit Information
数据来源 国际轨道数据 AOE轨道数据
星历时间 2026-09-04T05:53:57+0800
13小时前
查看轨道信息
2026-09-03T22:00:00+0800
21小时前
查看轨道信息
半长轴 6837.887km 6837.863km
偏心率 0.0001346 0.000082
轨道倾角 53.161° 53.162°
近地点辐角 89.784° 89.004°
升交点赤经 217.410° 218.949°
平近点角 270.332° 250.882°
近地点 458.829km 459.165km
远地点 460.671km 460.287km
周期 93.787分钟 93.786分钟
每日圈数 15.353943 15.354025
Detailed Information
固有亮度:
5
最大亮度:
2.5
卫星平台:
Starlink v1.5
覆盖范围:
全球
运营商:
太空探索技术公司
运营商所在国:
美国
制造商(研发单位):
太空探索技术公司
制造商所在国:
美国
使用方式:
暂无
Satellite Introduction
星链(Starlink)计划是由太空探索技术公司(SpaceX)提出的一个巨型低轨卫星互联网星座项目,计划在2019年至2024年间在太空搭建由约1.2万颗卫星组成的“星链”网络,其中1584颗将部署在地球上空550千米处的近地轨道,并从2020年开始工作。该卫星仍在工作。
2D Orbit Map
3D Orbit Map
Orbit Altitude Analysis Chart
Orbit Inclination Analysis Chart
Orbit Comprehensive Analysis Chart
View Comprehensive Chart
Conjunction Data List
Event ID Objects TCA Miss Dist (km) Collision Risk Probability Collision Risk Index (CRI) Action
CDM_260905-015705-382606-852121
2026-09-05T
01:57:18+0000
2.507 km
极远距离
1.548576E-6 低风险 0.39
CDM_260903-012805-382606-425922
2026-09-03T
01:28:21+0000
2.774 km
极远距离
1.29437E-6 低风险 0.37
CDM_260906-055305-382606-615521
2026-09-06T
05:53:24+0000
2.561 km
极远距离
1.248903E-6 低风险 0.37
CDM_260905-010205-382606-583121
2026-09-05T
01:02:44+0000
2.879 km
极远距离
1.16269E-6 低风险 0.36
CDM_260829-184405-382606-477021
2026-08-29T
18:44:41+0000
2.765 km
极远距离
1.075397E-6 低风险 0.36
CDM_260904-214905-382606-422821
2026-09-04T
21:49:17+0000
2.905 km
极远距离
9.141004E-7 极低风险 0.34
CDM_260905-153605-382606-551621
2026-09-05T
15:36:40+0000
2.869 km
极远距离
8.314534E-7 极低风险 0.33
CDM_260905-184605-382606-502221
2026-09-05T
18:46:12+0000
2.906 km
极远距离
6.209347E-7 极低风险 0.31
CDM_260904-170305-382606-492821
2026-09-04T
17:03:34+0000
2.757 km
极远距离
5.04147E-7 极低风险 0.29
CDM_260905-053305-382606-834021
2026-09-05T
05:33:16+0000
2.875 km
极远距离
4.540464E-7 极低风险 0.28